�������l�o���
Date,Time,MP-1(��Sv/h),MP-2(��Sv/h),MP-3(��Sv/h),MP-4(��Sv/h),MP-5(��Sv/h),MP-6(��Sv/h),MP-7(��Sv/h),MP-8(��Sv/h),����,����(m/s),���J
2023/04/22,00:00,0.570,0.836,0.502,1.044,0.741,0.327,0.582,0.551,�k�k��,7.6,��
2023/04/22,00:10,0.569,0.835,0.503,1.043,0.744,0.326,0.583,0.551,�k�k��,9.5,��
2023/04/22,00:20,0.569,0.836,0.502,1.044,0.740,0.327,0.582,0.549,�k�k��,7.6,��
2023/04/22,00:30,0.570,0.837,0.504,1.043,0.740,0.327,0.582,0.551,�k�k��,7.7,��
2023/04/22,00:40,0.570,0.835,0.502,1.044,0.742,0.327,0.583,0.549,�k�k��,7.2,��
2023/04/22,00:50,0.569,0.835,0.502,1.044,0.742,0.327,0.581,0.550,�k�k��,9.5,��
2023/04/22,01:00,0.569,0.837,0.503,1.045,0.740,0.327,0.581,0.551,�k�k��,8.2,��
2023/04/22,01:10,0.570,0.835,0.501,1.043,0.742,0.328,0.582,0.549,�k�k��,8.5,��
2023/04/22,01:20,0.569,0.838,0.503,1.045,0.742,0.326,0.581,0.549,�k�k��,6.9,��
2023/04/22,01:30,0.570,0.837,0.501,1.042,0.741,0.326,0.582,0.550,�k�k��,8.3,��
2023/04/22,01:40,0.571,0.836,0.502,1.045,0.740,0.327,0.583,0.550,�k�k��,7.4,��
2023/04/22,01:50,0.568,0.836,0.502,1.046,0.740,0.327,0.581,0.549,�k�k��,4.9,��
2023/04/22,02:00,0.569,0.834,0.502,1.044,0.739,0.328,0.584,0.550,�k�k��,6.5,��
2023/04/22,02:10,0.571,0.836,0.503,1.044,0.741,0.326,0.583,0.549,�k�k��,7.0,��
2023/04/22,02:20,0.569,0.836,0.503,1.043,0.740,0.326,0.583,0.549,�k�k��,5.6,��
2023/04/22,02:30,0.569,0.837,0.501,1.046,0.742,0.328,0.582,0.550,�k�k��,6.1,��
2023/04/22,02:40,0.569,0.836,0.503,1.045,0.740,0.326,0.584,0.550,�k�k��,8.0,��
2023/04/22,02:50,0.569,0.835,0.501,1.045,0.739,0.327,0.583,0.550,�k��,9.0,��
2023/04/22,03:00,0.569,0.836,0.503,1.047,0.739,0.327,0.583,0.549,�k��,9.6,��
2023/04/22,03:10,0.568,0.835,0.501,1.043,0.738,0.327,0.583,0.550,�k�k��,11.6,��
2023/04/22,03:20,0.568,0.837,0.503,1.043,0.742,0.326,0.582,0.551,�k��,9.5,��
2023/04/22,03:30,0.569,0.835,0.503,1.043,0.741,0.326,0.583,0.549,�k��,9.9,��
2023/04/22,03:40,0.570,0.836,0.502,1.047,0.738,0.327,0.582,0.551,�k��,4.4,��
2023/04/22,03:50,0.569,0.836,0.503,1.045,0.738,0.324,0.582,0.550,�k�k��,2.5,��
2023/04/22,04:00,0.569,0.834,0.502,1.045,0.740,0.325,0.581,0.551,�k��,6.0,��
2023/04/22,04:10,0.569,0.835,0.501,1.045,0.740,0.327,0.581,0.550,�k��,8.1,��
2023/04/22,04:20,0.568,0.836,0.502,1.044,0.739,0.326,0.582,0.550,�k��,7.9,��
2023/04/22,04:30,0.569,0.836,0.502,1.045,0.740,0.326,0.583,0.549,�k��,4.7,��
2023/04/22,04:40,0.570,0.836,0.501,1.044,0.740,0.326,0.584,0.550,�k��,5.9,��
2023/04/22,04:50,0.566,0.834,0.502,1.045,0.740,0.326,0.583,0.549,�k��,6.0,��
2023/04/22,05:00,0.566,0.837,0.501,1.047,0.740,0.325,0.582,0.550,�k��,6.2,��
2023/04/22,05:10,0.568,0.836,0.502,1.046,0.739,0.326,0.582,0.550,�k��,9.0,��
2023/04/22,05:20,0.569,0.837,0.501,1.045,0.740,0.326,0.582,0.549,�k��,9.7,��
2023/04/22,05:30,0.569,0.836,0.502,1.047,0.741,0.325,0.582,0.550,�k��,8.0,��
2023/04/22,05:40,0.568,0.835,0.502,1.044,0.740,0.325,0.584,0.548,�k��,8.1,��
2023/04/22,05:50,0.569,0.835,0.500,1.044,0.740,0.326,0.584,0.548,�k��,7.6,��
2023/04/22,06:00,0.568,0.835,0.501,1.046,0.740,0.325,0.582,0.549,�k��,6.0,��
2023/04/22,06:10,0.568,0.835,0.501,1.045,0.742,0.326,0.583,0.551,�k��,5.6,��
2023/04/22,06:20,0.569,0.835,0.503,1.044,0.739,0.326,0.582,0.549,�k��,7.3,��
2023/04/22,06:30,0.569,0.836,0.502,1.047,0.741,0.326,0.583,0.548,�k��,8.8,��
2023/04/22,06:40,0.568,0.836,0.502,1.046,0.741,0.326,0.582,0.549,�k��,8.2,��
2023/04/22,06:50,0.567,0.834,0.502,1.043,0.741,0.325,0.583,0.548,�k��,8.5,��
2023/04/22,07:00,0.569,0.838,0.502,1.046,0.738,0.326,0.582,0.549,�k��,10.3,��
2023/04/22,07:10,0.569,0.837,0.502,1.045,0.741,0.326,0.582,0.551,�k��,8.8,��
2023/04/22,07:20,0.568,0.837,0.501,1.045,0.740,0.327,0.582,0.551,�k��,10.3,��
2023/04/22,07:30,0.571,0.837,0.503,1.045,0.740,0.326,0.581,0.549,�k��,9.7,��
2023/04/22,07:40,0.568,0.835,0.502,1.046,0.740,0.325,0.581,0.551,�k��,12.5,��
2023/04/22,07:50,0.569,0.834,0.502,1.045,0.742,0.326,0.581,0.550,�k��,11.6,��
2023/04/22,08:00,0.568,0.834,0.504,1.048,0.744,0.325,0.580,0.551,�k��,9.8,��
2023/04/22,08:10,0.569,0.836,0.503,1.044,0.740,0.325,0.581,0.549,�k��,10.9,��
2023/04/22,08:20,0.570,0.833,0.504,1.046,0.741,0.324,0.580,0.550,�k��,11.3,��
2023/04/22,08:30,0.570,0.835,0.503,1.046,0.740,0.324,0.580,0.549,���k��,11.8,��
2023/04/22,08:40,0.571,0.833,0.503,1.045,0.741,0.325,0.580,0.549,���k��,7.0,��
2023/04/22,08:50,0.570,0.833,0.503,1.046,0.742,0.323,0.580,0.549,�k��,10.2,��
2023/04/22,09:00,0.571,0.836,0.504,1.047,0.743,0.325,0.580,0.548,�k��,9.2,��
2023/04/22,09:10,0.570,0.835,0.503,1.047,0.741,0.324,0.580,0.550,�k�k��,8.5,��
2023/04/22,09:20,0.570,0.834,0.504,1.045,0.743,0.325,0.581,0.547,�k��,9.3,��
2023/04/22,09:30,0.570,0.836,0.504,1.048,0.741,0.325,0.583,0.549,�k��,10.3,��
2023/04/22,09:40,0.570,0.836,0.502,1.045,0.742,0.324,0.582,0.549,���k��,10.5,��
2023/04/22,09:50,0.570,0.837,0.502,1.046,0.742,0.326,0.581,0.549,���k��,9.0,��
2023/04/22,10:00,0.569,0.836,0.504,1.047,0.742,0.326,0.582,0.550,���k��,8.1,��
2023/04/22,10:10,0.569,0.835,0.504,1.050,0.741,0.326,0.581,0.549,���k��,6.5,��
2023/04/22,10:20,0.571,0.838,0.504,1.045,0.741,0.327,0.582,0.550,�k��,7.8,��
2023/04/22,10:30,0.569,0.836,0.504,1.048,0.740,0.325,0.581,0.549,�k��,11.0,��
2023/04/22,10:40,0.569,0.836,0.503,1.050,0.740,0.326,0.581,0.550,�k��,10.8,��
2023/04/22,10:50,0.571,0.835,0.503,1.049,0.741,0.326,0.582,0.548,�k�k��,10.0,��
2023/04/22,11:00,0.569,0.835,0.502,1.050,0.740,0.326,0.582,0.549,�k��,9.2,��
2023/04/22,11:10,0.570,0.837,0.502,1.051,0.740,0.326,0.583,0.551,�k��,11.4,��
2023/04/22,11:20,0.569,0.836,0.503,1.050,0.741,0.326,0.583,0.550,�k��,11.8,��
2023/04/22,11:30,0.570,0.835,0.502,1.050,0.743,0.325,0.582,0.549,�k�k��,9.3,��
2023/04/22,11:40,0.570,0.835,0.501,1.049,0.740,0.326,0.583,0.550,�k��,9.3,��
2023/04/22,11:50,0.572,0.837,0.502,1.049,0.742,0.326,0.582,0.551,�k��,8.9,��
2023/04/22,12:00,0.571,0.838,0.503,1.047,0.741,0.326,0.583,0.551,���k��,8.2,��
2023/04/22,12:10,0.572,0.837,0.503,1.046,0.742,0.326,0.582,0.550,�k��,7.6,��
2023/04/22,12:20,0.571,0.837,0.503,1.046,0.741,0.328,0.583,0.549,�k��,8.1,��
2023/04/22,12:30,0.571,0.837,0.502,1.047,0.741,0.327,0.583,0.551,�k��,8.8,��
2023/04/22,12:40,0.571,0.837,0.503,1.048,0.742,0.327,0.583,0.551,�k��,8.1,��
2023/04/22,12:50,0.571,0.839,0.503,1.051,0.742,0.325,0.582,0.551,�k�k��,6.8,��
2023/04/22,13:00,0.571,0.838,0.503,1.052,0.744,0.327,0.583,0.550,�k��,6.2,��
2023/04/22,13:10,0.571,0.838,0.504,1.051,0.744,0.328,0.583,0.549,�k�k��,5.9,��
2023/04/22,13:20,0.572,0.838,0.503,1.052,0.743,0.327,0.582,0.552,�k�k��,9.6,��
2023/04/22,13:30,0.571,0.839,0.503,1.051,0.742,0.327,0.583,0.552,�k�k��,8.8,��
2023/04/22,13:40,0.573,0.839,0.503,1.051,0.744,0.326,0.584,0.551,�k�k��,7.8,��
2023/04/22,13:50,0.572,0.837,0.502,1.053,0.742,0.327,0.583,0.550,�k�k��,8.6,��
2023/04/22,14:00,0.573,0.838,0.503,1.051,0.745,0.326,0.583,0.551,�k�k��,7.6,��
2023/04/22,14:10,0.572,0.839,0.503,1.051,0.744,0.327,0.583,0.551,�k��,9.7,��
2023/04/22,14:20,0.571,0.839,0.503,1.053,0.742,0.327,0.583,0.550,�k��,8.9,��
2023/04/22,14:30,0.571,0.838,0.503,1.052,0.741,0.326,0.583,0.550,�k��,8.5,��
2023/04/22,14:40,0.572,0.839,0.503,1.053,0.743,0.327,0.583,0.549,�k�k��,11.3,��
2023/04/22,14:50,0.571,0.838,0.504,1.052,0.743,0.326,0.582,0.549,�k��,7.7,��
2023/04/22,15:00,0.573,0.841,0.502,1.049,0.745,0.325,0.582,0.550,�k��,6.9,��
2023/04/22,15:10,0.572,0.838,0.502,1.051,0.743,0.327,0.583,0.551,�k��,7.7,��
2023/04/22,15:20,0.572,0.838,0.503,1.048,0.742,0.327,0.584,0.552,�k�k��,8.8,��
2023/04/22,15:30,0.574,0.837,0.502,1.048,0.744,0.327,0.583,0.549,�k�k��,9.1,��
2023/04/22,15:40,0.572,0.838,0.504,1.049,0.742,0.327,0.582,0.550,�k�k��,9.6,��
2023/04/22,15:50,0.570,0.838,0.501,1.049,0.743,0.325,0.583,0.550,�k��,8.9,��
2023/04/22,16:00,0.570,0.838,0.501,1.050,0.742,0.326,0.582,0.550,�k��,7.9,��
2023/04/22,16:10,0.571,0.837,0.504,1.048,0.743,0.327,0.584,0.551,�k��,10.0,��
2023/04/22,16:20,0.571,0.838,0.504,1.051,0.743,0.326,0.583,0.550,�k��,9.4,��
2023/04/22,16:30,0.571,0.839,0.502,1.047,0.743,0.325,0.582,0.550,�k��,8.8,��
2023/04/22,16:40,0.572,0.839,0.503,1.049,0.744,0.326,0.582,0.549,�k��,6.9,��
2023/04/22,16:50,0.572,0.837,0.503,1.048,0.743,0.327,0.583,0.548,�k��,7.1,��
2023/04/22,17:00,0.571,0.838,0.505,1.047,0.743,0.327,0.581,0.550,�k��,7.7,��
2023/04/22,17:10,0.571,0.838,0.501,1.048,0.743,0.326,0.581,0.550,�k��,8.6,��
2023/04/22,17:20,0.570,0.840,0.501,1.049,0.742,0.327,0.582,0.551,�k��,7.5,��
2023/04/22,17:30,0.570,0.841,0.501,1.052,0.740,0.328,0.581,0.552,�k��,6.2,��
2023/04/22,17:40,0.571,0.841,0.501,1.050,0.742,0.328,0.582,0.551,�k��,7.0,��
2023/04/22,17:50,0.572,0.841,0.501,1.049,0.742,0.326,0.582,0.552,�k��,6.9,��
2023/04/22,18:00,0.572,0.843,0.501,1.052,0.743,0.327,0.580,0.553,�k��,6.9,��
2023/04/22,18:10,0.573,0.841,0.504,1.052,0.743,0.327,0.579,0.551,�k��,8.5,��
2023/04/22,18:20,0.570,0.839,0.502,1.053,0.745,0.326,0.580,0.553,�k��,8.8,��
2023/04/22,18:30,0.572,0.839,0.504,1.052,0.747,0.326,0.580,0.552,�k��,7.8,��
2023/04/22,18:40,0.572,0.841,0.505,1.052,0.745,0.326,0.580,0.551,�k��,8.0,��
2023/04/22,18:50,0.572,0.840,0.504,1.052,0.747,0.326,0.579,0.552,�k��,8.2,��
2023/04/22,19:00,0.571,0.842,0.505,1.051,0.744,0.326,0.581,0.552,�k��,8.3,��
2023/04/22,19:10,0.572,0.839,0.504,1.052,0.745,0.326,0.582,0.550,�k��,8.0,��
2023/04/22,19:20,0.570,0.842,0.504,1.051,0.745,0.326,0.583,0.551,�k��,9.7,��
2023/04/22,19:30,0.573,0.840,0.505,1.050,0.744,0.326,0.580,0.551,�k��,9.4,��
2023/04/22,19:40,0.569,0.840,0.502,1.054,0.744,0.326,0.582,0.551,�k��,10.5,��
2023/04/22,19:50,0.571,0.841,0.503,1.052,0.745,0.327,0.581,0.551,�k��,9.2,��
2023/04/22,20:00,0.572,0.840,0.503,1.052,0.745,0.327,0.581,0.551,�k��,7.8,��
2023/04/22,20:10,0.570,0.842,0.503,1.052,0.746,0.326,0.581,0.551,�k��,7.7,��
2023/04/22,20:20,0.572,0.841,0.504,1.051,0.745,0.326,0.582,0.549,�k��,8.3,��
2023/04/22,20:30,0.572,0.840,0.502,1.053,0.745,0.327,0.581,0.551,�k��,7.7,��
2023/04/22,20:40,0.571,0.841,0.502,1.053,0.746,0.327,0.582,0.551,�k��,6.8,��
2023/04/22,20:50,0.570,0.841,0.501,1.053,0.746,0.326,0.581,0.551,�k��,6.9,��
2023/04/22,21:00,0.571,0.840,0.502,1.053,0.746,0.326,0.582,0.553,�k��,9.3,��
2023/04/22,21:10,0.571,0.841,0.504,1.054,0.745,0.326,0.582,0.552,�k��,7.4,��
2023/04/22,21:20,0.572,0.840,0.503,1.054,0.744,0.325,0.582,0.552,�k��,7.6,��
2023/04/22,21:30,0.571,0.842,0.502,1.054,0.746,0.327,0.583,0.552,�k�k��,6.6,��
2023/04/22,21:40,0.569,0.840,0.504,1.053,0.745,0.327,0.582,0.552,�k�k��,8.3,��
2023/04/22,21:50,0.572,0.840,0.503,1.055,0.745,0.327,0.582,0.551,�k,8.2,��
2023/04/22,22:00,0.571,0.839,0.502,1.051,0.744,0.326,0.582,0.550,�k,8.4,��
2023/04/22,22:10,0.570,0.841,0.503,1.054,0.743,0.326,0.582,0.552,�k�k��,8.4,��
2023/04/22,22:20,0.571,0.839,0.503,1.053,0.744,0.327,0.583,0.550,�k,9.1,��
2023/04/22,22:30,0.570,0.842,0.503,1.052,0.745,0.326,0.582,0.551,�k�k��,10.7,��
2023/04/22,22:40,0.570,0.839,0.504,1.052,0.744,0.327,0.582,0.550,�k�k��,7.5,��
2023/04/22,22:50,0.571,0.840,0.502,1.054,0.745,0.327,0.582,0.550,�k,6.5,��
2023/04/22,23:00,0.571,0.839,0.505,1.054,0.743,0.327,0.582,0.549,�k,5.3,��
2023/04/22,23:10,0.571,0.838,0.503,1.053,0.744,0.325,0.581,0.549,�k,5.9,��
2023/04/22,23:20,0.572,0.840,0.502,1.055,0.744,0.326,0.583,0.551,�k,5.5,��
2023/04/22,23:30,0.569,0.838,0.502,1.052,0.743,0.325,0.583,0.550,�k,7.0,��
2023/04/22,23:40,0.572,0.839,0.503,1.054,0.743,0.326,0.582,0.550,�k,7.1,��
2023/04/22,23:50,0.571,0.839,0.502,1.052,0.747,0.326,0.583,0.551,�k�k��,6.9,��
